Weather History for McComb, MS

Change the Weather History Date:

Monday, December 30, 2013

  Actual Average Record
Temperature  
Mean Temperature 48 °F -  
Max Temperature 53 °F 59 °F 79 °F (1964)
Min Temperature 41 °F 39 °F 13 °F (1983)
Degree Days  
Heating Degree Days 18    
Moisture  
Dew Point 42 °F    
Average Humidity 84    
Maximum Humidity 97    
Minimum Humidity 64    
Precipitation  
Precipitation 0.00 in - - ()
Sea Level Pressure  
Sea Level Pressure 30.21 in    
Wind  
Wind Speed 2 mph (NNW)    
Max Wind Speed 13 mph    
Max Gust Speed -    
Visibility 10 miles    
Events      
Averages and records for this station are not official NWS values.
T = Trace of Precipitation, MM = Missing Value Source: NWS Daily Summary

Daily Weather History Graph

Daily Weather History Graph

Search for Another Location

Airport:

Trip Planner

Search our weather history database for the weather conditions in past years. The results will help you decide how hot, cold, wet, or windy it might be!

Date:

Astronomy

Dec. 30, 2013 Rise Set
Actual Time 7:00 AM CST 5:09 PM CST
Civil Twilight 6:33 AM CST 5:35 PM CST
Nautical Twilight 6:03 AM CST 6:06 PM CST
Astronomical Twilight 5:33 AM CST 6:35 PM CST
Moon 4:53 AM CST (12/30) 3:39 PM CST (12/30)
Length of Visible Light 11h 02m
Length of Day
10h 09m
Waning Crescent, 4% of the Moon is Illuminated
Dec 30
Waning Crescent
Jan 1
New
Jan 7
First Quarter
Jan 15
Full
Jan 23
Last Quarter

Hourly Weather History & Observations

Time (CST) Temp. Windchill Dew Point Humidity Pressure Visibility Wind Dir Wind Speed Gust Speed Precip Events Conditions
12:53 AM 44.1 °F - 42.1 °F 93% 30.13 in 10.0 mi Calm Calm - N/A   Overcast
1:53 AM 43.0 °F - 42.1 °F 97% 30.14 in 10.0 mi Calm Calm - N/A   Overcast
2:53 AM 42.1 °F - 39.9 °F 92% 30.12 in 9.0 mi Calm Calm - N/A   Scattered Clouds
3:53 AM 42.1 °F - 39.9 °F 92% 30.12 in 10.0 mi Calm Calm - N/A   Clear
4:53 AM 42.1 °F - 41.0 °F 96% 30.14 in 10.0 mi Calm Calm - N/A   Overcast
5:53 AM 42.1 °F - 41.0 °F 96% 30.14 in 7.0 mi Calm Calm - N/A   Clear
6:53 AM 43.0 °F 41.3 °F 41.0 °F 93% 30.16 in 10.0 mi NNW 3.5 mph - N/A   Clear
7:53 AM 44.1 °F - 43.0 °F 96% 30.17 in 8.0 mi Calm Calm - N/A   Clear
8:53 AM 46.9 °F - 42.1 °F 83% 30.19 in 10.0 mi NNE 3.5 mph - N/A   Clear
9:53 AM 50.0 °F - 44.1 °F 80% 30.22 in 10.0 mi Calm Calm - N/A   Overcast
10:53 AM 52.0 °F - 43.0 °F 71% 30.23 in 10.0 mi Calm Calm - N/A   Overcast
11:53 AM 53.1 °F - 45.0 °F 74% 30.21 in 10.0 mi Calm Calm - N/A   Overcast
12:53 PM 52.0 °F - 44.1 °F 74% 30.20 in 10.0 mi NW 4.6 mph - N/A   Scattered Clouds
1:53 PM 52.0 °F - 41.0 °F 66% 30.17 in 10.0 mi West 3.5 mph - N/A   Clear
2:53 PM 53.1 °F - 41.0 °F 64% 30.18 in 10.0 mi Calm Calm - N/A   Clear
3:53 PM 52.0 °F - 44.1 °F 74% 30.19 in 10.0 mi Calm Calm - N/A   Clear
4:53 PM 51.1 °F - 45.0 °F 80% 30.22 in 10.0 mi NW 6.9 mph - N/A   Overcast
5:53 PM 50.0 °F - 45.0 °F 83% 30.23 in 10.0 mi NNW 6.9 mph - N/A   Mostly Cloudy
6:53 PM 48.0 °F - 44.1 °F 86% 30.26 in 10.0 mi NNW 6.9 mph - N/A   Overcast
7:33 PM 46.4 °F 43.5 °F 44.6 °F 93% 30.27 in 10.0 mi NNW 5.8 mph - N/A   Overcast
7:53 PM 46.9 °F - 42.1 °F 83% 30.28 in 10.0 mi NNW 9.2 mph - N/A   Mostly Cloudy
8:06 PM 46.4 °F 40.7 °F 42.8 °F 87% 30.29 in 10.0 mi NNW 12.7 mph - N/A   Scattered Clouds
8:53 PM 45.0 °F 42.6 °F 39.9 °F 82% 30.31 in 10.0 mi NNW 4.6 mph - N/A   Overcast
9:53 PM 44.1 °F 39.0 °F 39.0 °F 82% 30.32 in 10.0 mi North 9.2 mph - N/A   Overcast
10:53 PM 42.1 °F 36.1 °F 37.0 °F 82% 30.34 in 10.0 mi NNW 10.4 mph - N/A   Clear
11:53 PM 41.0 °F 35.2 °F 35.1 °F 79% 30.34 in 10.0 mi NNW 9.2 mph - N/A   Partly Cloudy